KC4LW Weather Reports


Display with metric or nautical units.
time (UTC)temp
F
wind
direction
speed
MPH
gust
MPH
rain 1hr
in
rain 24hr
in
rain mn
in
humidity
%
barometer
mb
20260901101604 77 0 0.0 0.0 0.00 0.00 0.00 99 1015.6
20260901100057 78 0 0.0 1.0 0.00 0.00 0.00 99 1015.7
20260901094600 78 0 0.0 0.0 0.00 0.00 0.00 99 1015.6
20260901093107 78 0 0.0 0.0 0.00 0.00 0.00 99 1015.6
20260901091609 78 0 0.0 0.0 0.00 0.00 0.00 99 1015.3
20260901090057 77 0 0.0 0.0 0.00 0.00 0.00 99 1015.4
20260901084600 77 0 0.0 0.0 0.00 0.00 0.00 99 1015.3
20260901083101 77 0 0.0 0.0 0.00 0.00 0.00 99 1015.5
20260901081559 77 0 0.0 0.0 0.00 0.00 0.00 99 1015.3
20260901074601 77 0 0.0 0.0 0.00 0.00 0.00 98 1015.4
20260901073101 77 0 0.0 0.0 0.00 0.00 0.00 98 1015.6
20260901071602 77 0 0.0 0.0 0.00 0.00 0.00 98 1015.8
20260901070108 78 0 0.0 0.0 0.00 0.00 0.00 98 1015.9
20260901064601 78 0 0.0 0.0 0.00 0.00 0.00 98 1015.9
20260901063102 78 0 0.0 0.0 0.00 0.00 0.00 98 1016.0
20260901061559 78 0 0.0 0.0 0.00 0.00 0.00 98 1016.1
20260901054559 78 0 0.0 0.0 0.00 0.00 0.00 97 1016.3
20260901053100 78 0 0.0 0.0 0.00 0.00 0.00 97 1016.4
20260901051609 78 0 0.0 0.0 0.00 0.00 0.00 97 1016.7
20260901050101 78 0 0.0 0.0 0.00 0.00 0.00 97 1016.7
20260901044558 78 0 0.0 0.0 0.00 0.00 0.00 97 1016.4
20260901043107 78 0 0.0 0.0 0.00 0.00 0.00 96 1016.7
20260901041620 78 0 0.0 0.0 0.00 0.00 0.00 96 1016.7
20260901040110 79 0 0.0 0.0 0.00 0.00 0.00 96 1016.9
20260901034607 79 0 0.0 0.0 0.00 0.00 0.00 96 1017.0
20260901033104 79 0 0.0 0.0 0.00 0.00 0.00 95 1017.1
20260901031558 79 0 0.0 0.0 0.00 0.00 0.00 95 1017.1
20260901030059 79 0 0.0 1.0 0.00 0.00 0.00 95 1017.3
20260901024557 79 0 0.0 0.0 0.00 0.00 0.00 95 1017.4
20260901023101 80 0 0.0 0.0 0.00 0.00 0.00 94 1017.4
20260901021602 80 0 0.0 0.0 0.00 0.00 0.00 94 1017.4
20260901020105 80 0 0.0 2.0 0.00 0.00 0.00 94 1017.2
20260901014600 80 0 0.0 3.0 0.00 0.00 0.00 94 1016.9
20260901013106 80 0 0.0 2.0 0.00 0.00 0.00 94 1016.5
20260901011559 80 0 0.0 3.0 0.00 0.00 0.00 94 1016.4
20260901010106 81 0 0.0 3.0 0.00 0.00 0.00 94 1016.3
20260901004600 81 115 2.0 4.0 0.00 0.00 0.00 93 1016.3
20260901003102 81 0 1.0 6.0 0.00 0.00 0.00 93 1016.4
20260901001604 81 65 0.0 4.0 0.00 0.00 0.00 93 1016.3
20260901000104 81 115 1.0 4.0 0.00 0.00 0.00 92 1016.3
20260831234601 81 104 1.0 7.0 0.00 0.00 0.00 92 1016.4
20260831233105 82 45 1.0 4.0 0.00 0.00 0.00 90 1016.3
20260831231610 82 79 2.0 6.0 0.00 0.00 0.00 89 1016.5
20260831230056 83 74 1.0 6.0 0.00 0.00 0.00 88 1016.4
20260831224603 83 70 0.0 7.0 0.00 0.00 0.00 87 1016.3
20260831223059 84 224 2.0 11.0 0.00 0.00 0.00 85 1016.3
20260831221556 84 70 2.0 8.0 0.00 0.00 0.00 82 1016.0
20260831220103 84 87 3.0 9.0 0.00 0.00 0.00 78 1015.9
20260831214610 85 106 2.0 7.0 0.00 0.00 0.00 78 1015.8
20260831213100 85 55 2.0 7.0 0.00 0.00 0.00 78 1015.9
20260831211558 85 53 1.0 10.0 0.00 0.00 0.00 79 1015.8
20260831210058 85 59 1.0 6.0 0.00 0.00 0.00 81 1015.9
20260831204557 85 100 3.0 9.0 0.00 0.00 0.00 80 1016.0
20260831203056 85 62 2.0 7.0 0.00 0.00 0.00 80 1015.9
20260831201600 85 113 3.0 11.0 0.00 0.00 0.00 80 1015.8
20260831200059 85 146 2.0 9.0 0.00 0.00 0.00 82 1016.0
20260831194618 87 0 2.0 7.0 0.00 0.00 0.00 77 1016.0
20260831193054 85 121 2.0 8.0 0.00 0.00 0.00 77 1016.0
20260831191556 86 44 1.0 10.0 0.00 0.00 0.00 78 1016.4
20260831190101 87 88 2.0 9.0 0.00 0.00 0.00 77 1016.4
20260831184600 87 121 1.0 6.0 0.00 0.00 0.00 78 1016.6
20260831183108 87 75 1.0 7.0 0.00 0.00 0.00 75 1017.0
20260831181609 87 55 2.0 7.0 0.00 0.00 0.00 77 1017.1
20260831180107 85 5 2.0 9.0 0.00 0.00 0.00 79 1017.2
20260831174608 86 87 2.0 6.0 0.00 0.00 0.00 79 1017.3
20260831173106 86 121 1.0 7.0 0.00 0.00 0.00 81 1017.7
20260831171607 85 141 1.0 7.0 0.00 0.00 0.00 82 1017.7
20260831170123 85 5 1.0 7.0 0.00 0.00 0.00 81 1017.8
20260831164612 86 248 1.0 7.0 0.00 0.00 0.00 83 1018.0
20260831163106 86 123 2.0 7.0 0.00 0.00 0.00 82 1018.0
20260831161608 85 352 1.0 9.0 0.00 0.00 0.00 83 1018.3
20260831160103 85 55 1.0 4.0 0.00 0.00 0.00 85 1018.4
20260831154627 85 67 2.0 4.0 0.00 0.00 0.00 83 1018.6
20260831153101 86 19 1.0 7.0 0.00 0.00 0.00 82 1018.5
20260831151558 86 78 2.0 10.0 0.00 0.00 0.00 82 1018.3
20260831150104 86 0 2.0 7.0 0.00 0.00 0.00 83 1018.2
20260831144610 85 21 1.0 8.0 0.00 0.00 0.00 84 1018.2
20260831143111 85 30 2.0 7.0 0.00 0.00 0.00 84 1018.0
20260831141559 84 63 2.0 7.0 0.00 0.00 0.00 85 1017.7
20260831140058 85 123 1.0 5.0 0.00 0.00 0.00 84 1017.3
20260831134602 84 150 1.0 3.0 0.00 0.00 0.00 87 1017.3
20260831133100 83 291 1.0 3.0 0.00 0.00 0.00 88 1017.0
20260831131605 81 0 1.0 3.0 0.00 0.00 0.00 92 1017.0
20260831130121 80 0 0.0 2.0 0.00 0.00 0.00 96 1017.3
20260831124601 79 0 0.0 1.0 0.00 0.00 0.00 98 1017.0
20260831123103 78 0 0.0 2.0 0.00 0.00 0.00 100 1016.8
20260831121607 77 0 0.0 0.0 0.00 0.00 0.00 99 1016.9
20260831114612 77 0 0.0 0.0 0.00 0.00 0.00 99 1016.6
20260831113107 76 0 0.0 1.0 0.00 0.00 0.00 99 1016.5
20260831111603 77 0 0.0 1.0 0.00 0.00 0.00 99 1016.3
20260831110108 77 0 0.0 0.0 0.00 0.00 0.00 99 1016.2
20260831104600 77 0 0.0 0.0 0.00 0.00 0.00 99 1016.1
20260831103101 78 0 0.0 2.0 0.00 0.00 0.00 99 1016.1